When you browse on this site, cookies collect data to enhance your experience and personalize the content and advertising you see.
Visit our Privacy Policy to learn more. By continuing to use the site, you agree to this use of cookies and data.

Hourly Weather Podcisowie

Today, 13 August, Thursday

Time Temperature Precipitation Wind Pressure Humidity
00:00 +16°C° 0 mm 2 mps 731 mmHg 72%
01:00 +16°C° 0 mm 2 mps 731 mmHg 73%
02:00 +16°C° 0 mm 2 mps 731 mmHg 75%
03:00 +15°C° 0 mm 2 mps 730 mmHg 77%
04:00 +15°C° 0 mm 2 mps 730 mmHg 78%
05:00 +16°C° 0 mm 2 mps 730 mmHg 75%
06:00 +18°C° 0 mm 2 mps 730 mmHg 72%
07:00 +19°C° 0 mm 2 mps 730 mmHg 68%
08:00 +21°C° 0 mm 2 mps 730 mmHg 61%
09:00 +23°C° 0 mm 2 mps 730 mmHg 55%
10:00 +25°C° 0 mm 3 mps 730 mmHg 48%
11:00 +26°C° 0 mm 2 mps 730 mmHg 45%
12:00 +27°C° 0 mm 2 mps 730 mmHg 42%
13:00 +28°C° 0 mm 2 mps 730 mmHg 39%
14:00 +28°C° 0 mm 2 mps 730 mmHg 40%
15:00 +28°C° 0 mm 2 mps 729 mmHg 41%
16:00 +28°C° 0 mm 2 mps 729 mmHg 42%
17:00 +26°C° 0 mm 2 mps 729 mmHg 47%
18:00 +24°C° 0 mm 2 mps 729 mmHg 53%
19:00 +21°C° 0 mm 3 mps 728 mmHg 59%
20:00 +20°C° 0 mm 3 mps 728 mmHg 61%
21:00 +19°C° 0 mm 2 mps 729 mmHg 62%
22:00 +19°C° 0 mm 2 mps 729 mmHg 64%
23:00 +18°C° 0 mm 2 mps 728 mmHg 66%

Tomorrow, 14 August, Friday

Time Temperature Precipitation Wind Pressure Humidity
00:00 +18°C° 0 mm 2 mps 728 mmHg 67%
01:00 +18°C° 0 mm 2 mps 728 mmHg 69%
02:00 +17°C° 0 mm 2 mps 728 mmHg 70%
03:00 +17°C° 0 mm 2 mps 728 mmHg 70%
04:00 +17°C° 0 mm 2 mps 728 mmHg 71%
05:00 +18°C° 0 mm 3 mps 728 mmHg 69%
06:00 +19°C° 0 mm 3 mps 728 mmHg 67%
07:00 +20°C° 0 mm 4 mps 728 mmHg 65%
08:00 +22°C° 0 mm 4 mps 728 mmHg 60%
09:00 +23°C° 0 mm 4 mps 728 mmHg 55%
10:00 +26°C° 0 mm 5 mps 728 mmHg 50%
11:00 +27°C° 0 mm 5 mps 728 mmHg 48%
12:00 +28°C° 0 mm 4 mps 728 mmHg 46%
13:00 +28°C° 0 mm 4 mps 728 mmHg 45%
14:00 +28°C° 0 mm 5 mps 728 mmHg 46%
15:00 +28°C° 0 mm 5 mps 727 mmHg 48%
16:00 +27°C° 0 mm 5 mps 727 mmHg 50%
17:00 +26°C° 0 mm 4 mps 727 mmHg 55%
18:00 +23°C° 0 mm 4 mps 727 mmHg 61%
19:00 +21°C° 0 mm 3 mps 727 mmHg 66%
20:00 +21°C° 0 mm 4 mps 727 mmHg 68%
21:00 +20°C° 0 mm 4 mps 727 mmHg 69%
22:00 +20°C° 0 mm 4 mps 727 mmHg 70%
23:00 +19°C° 0.2 mm 4 mps 727 mmHg 73%

Day after tomorrow, 15 August, Saturday

Time Temperature Precipitation Wind Pressure Humidity
00:00 +19°C° 0.2 mm 4 mps 727 mmHg 76%
01:00 +18°C° 0.2 mm 4 mps 727 mmHg 79%
02:00 +18°C° 0.4 mm 4 mps 727 mmHg 82%
03:00 +17°C° 0.4 mm 4 mps 727 mmHg 84%
04:00 +17°C° 0.4 mm 4 mps 727 mmHg 86%
05:00 +17°C° 0.3 mm 4 mps 727 mmHg 86%
06:00 +17°C° 0.3 mm 4 mps 727 mmHg 85%
07:00 +17°C° 0.3 mm 4 mps 727 mmHg 85%
08:00 +17°C° 0.3 mm 4 mps 727 mmHg 84%
09:00 +17°C° 0.3 mm 3 mps 727 mmHg 84%
10:00 +17°C° 0.3 mm 3 mps 728 mmHg 83%
11:00 +17°C° 0.5 mm 3 mps 728 mmHg 84%
12:00 +17°C° 0.5 mm 4 mps 728 mmHg 85%
13:00 +17°C° 0.5 mm 4 mps 728 mmHg 86%
14:00 +17°C° 0.1 mm 4 mps 727 mmHg 85%
15:00 +17°C° 0.1 mm 4 mps 727 mmHg 85%
16:00 +17°C° 0.1 mm 4 mps 727 mmHg 84%
17:00 +17°C° 0 mm 4 mps 727 mmHg 85%
18:00 +17°C° 0 mm 4 mps 727 mmHg 85%
19:00 +17°C° 0 mm 4 mps 727 mmHg 86%
20:00 +17°C° 0 mm 3 mps 727 mmHg 86%
21:00 +17°C° 0 mm 3 mps 727 mmHg 86%
22:00 +17°C° 0 mm 3 mps 728 mmHg 86%
23:00 +17°C° 0 mm 3 mps 727 mmHg 87%

16 August, Sunday

Time Temperature Precipitation Wind Pressure Humidity
00:00 +17°C° 0 mm 3 mps 727 mmHg 87%
01:00 +16°C° 0 mm 3 mps 727 mmHg 87%
02:00 +16°C° 0 mm 3 mps 727 mmHg 89%
03:00 +14°C° 0 mm 3 mps 727 mmHg 90%
04:00 +14°C° 0 mm 3 mps 727 mmHg 92%
05:00 +16°C° 0 mm 3 mps 727 mmHg 89%
06:00 +16°C° 0 mm 3 mps 727 mmHg 85%
07:00 +17°C° 0 mm 3 mps 727 mmHg 82%
08:00 +19°C° 0 mm 4 mps 728 mmHg 76%
09:00 +20°C° 0 mm 4 mps 728 mmHg 71%
10:00 +22°C° 0 mm 4 mps 728 mmHg 65%
11:00 +23°C° 0 mm 4 mps 728 mmHg 63%
12:00 +23°C° 0 mm 5 mps 728 mmHg 61%
13:00 +25°C° 0 mm 5 mps 728 mmHg 59%
14:00 +25°C° 0 mm 5 mps 728 mmHg 61%
15:00 +23°C° 0 mm 5 mps 727 mmHg 62%
16:00 +23°C° 0 mm 4 mps 727 mmHg 64%
17:00 +21°C° 0 mm 4 mps 727 mmHg 71%
18:00 +19°C° 0 mm 4 mps 727 mmHg 78%
19:00 +17°C° 0 mm 4 mps 727 mmHg 85%
20:00 +16°C° 0 mm 3 mps 727 mmHg 88%
21:00 +14°C° 0 mm 3 mps 727 mmHg 92%
22:00 +15°C° 0 mm 2 mps 727 mmHg 95%
23:00 +14°C° 0 mm 2 mps 727 mmHg 96%

17 August, Monday

Time Temperature Precipitation Wind Pressure Humidity
00:00 +14°C° 0 mm 2 mps 727 mmHg 97%
01:00 +13°C° 0 mm 2 mps 726 mmHg 97%
02:00 +13°C° 0 mm 1 mps 726 mmHg 97%
03:00 +13°C° 0 mm 1 mps 726 mmHg 97%
04:00 +13°C° 0 mm 1 mps 726 mmHg 97%
05:00 +14°C° 0 mm 1 mps 726 mmHg 95%
06:00 +15°C° 0 mm 1 mps 726 mmHg 93%
07:00 +16°C° 0 mm 1 mps 726 mmHg 91%
08:00 +18°C° 0 mm 1 mps 726 mmHg 85%
09:00 +20°C° 0 mm 1 mps 726 mmHg 79%
10:00 +21°C° 0 mm 1 mps 726 mmHg 73%
11:00 +23°C° 0 mm 1 mps 726 mmHg 66%
12:00 +25°C° 0 mm 1 mps 726 mmHg 60%
13:00 +26°C° 0 mm 1 mps 726 mmHg 53%
14:00 +26°C° 0.1 mm 1 mps 726 mmHg 54%
15:00 +26°C° 0.1 mm 1 mps 725 mmHg 54%
16:00 +26°C° 0.1 mm 2 mps 725 mmHg 55%
17:00 +25°C° 0.1 mm 2 mps 725 mmHg 60%
18:00 +23°C° 0.1 mm 2 mps 725 mmHg 66%
19:00 +20°C° 0.1 mm 2 mps 724 mmHg 72%
20:00 +19°C° 0 mm 2 mps 724 mmHg 74%
21:00 +19°C° 0 mm 2 mps 724 mmHg 77%
22:00 +18°C° 0 mm 2 mps 724 mmHg 80%
23:00 +17°C° 0 mm 2 mps 724 mmHg 82%

18 August, Tuesday

Time Temperature Precipitation Wind Pressure Humidity
00:00 +17°C° 0 mm 2 mps 724 mmHg 85%
01:00 +16°C° 0 mm 2 mps 724 mmHg 87%
02:00 +16°C° 0 mm 2 mps 724 mmHg 88%
03:00 +16°C° 0 mm 2 mps 723 mmHg 89%
04:00 +16°C° 0 mm 2 mps 723 mmHg 90%
05:00 +17°C° 0 mm 2 mps 723 mmHg 87%
06:00 +18°C° 0 mm 2 mps 723 mmHg 83%
07:00 +19°C° 0 mm 2 mps 723 mmHg 79%
08:00 +20°C° 0 mm 2 mps 723 mmHg 74%
09:00 +23°C° 0 mm 2 mps 724 mmHg 69%
10:00 +24°C° 0 mm 2 mps 724 mmHg 64%
11:00 +25°C° 0.1 mm 3 mps 723 mmHg 61%
12:00 +26°C° 0.1 mm 3 mps 723 mmHg 58%
13:00 +27°C° 0.1 mm 3 mps 723 mmHg 56%
14:00 +26°C° 0.7 mm 3 mps 723 mmHg 58%
15:00 +26°C° 0.7 mm 3 mps 722 mmHg 60%
16:00 +25°C° 0.7 mm 2 mps 722 mmHg 63%
17:00 +24°C° 1.3 mm 2 mps 722 mmHg 70%
18:00 +21°C° 1.3 mm 3 mps 722 mmHg 77%
19:00 +20°C° 1.3 mm 3 mps 722 mmHg 84%
20:00 +19°C° 0.7 mm 2 mps 722 mmHg 86%
21:00 +19°C° 0.7 mm 2 mps 722 mmHg 87%
22:00 +20°C° 0.7 mm 1 mps 722 mmHg 88%
23:00 +20°C° 0.7 mm 1 mps 722 mmHg 90%
Show more